Terug naar catalogus

FENGYUN 1C DEB

LostPO
NORAD 31637·DEBRIS·🇨🇳 China

Gelanceerd May 10, 1999 vanaf Taiyuan Satellite Launch Center

Loading…

Volgende Passages (komende 24 uur)

TLE

VerouderdSource: Space-Track

Epoch: Sep 23, 2022, 10:14 UTC

1 31637U 99025CAT 22266.42706648  .00003947  00000-0  14688-2 0  9992
2 31637  99.1014 129.5630 0055489  10.4028 349.8288 14.31802759795539

Volg FENGYUN 1C DEB in realtime met AllMySat

Download on the App Store